Location: Krasnoyarskiy Pitomnik
(51.1333°N, 71.6167°E)
Time: 18:27:28
(UTC+00:00)

Vanguard 2 - Pass Details

Date: 24 April 2024
Orbit: 553 x 2914 km, 32.9° (Epoch: 22 May)

Event Time Altitude Azimuth Distance (km) Brightness Sun altitude
Exits shadow 18:16:00 17° 123° (ESE) 4,718 11.1 -24.5°
Drops below altitude 10° 18:21:42 10° 104° (ESE) 5,533 11.6 -24.7°
Sets 18:28:24 0° 89° (E) 6,731 12.2 -25.0°
